Time,TemperatureF,DewpointF,PressureIn,WindDirection,WindDirectionDegrees,WindSpeedMPH,WindSpeedGustMPH,Humidity,HourlyPrecipIn,Conditions,Clouds,dailyrainin,SolarRadiationWatts/m^2,SoftwareType,DateUTC
2013-03-11 00:00:00,49.8,31.4,29.94,ESE,112,6.9,6.9,49,0.00,OVC,,0.00,0.0,WeatherDisplay:10.37,2013-03-11 04:00:00,
2013-03-11 00:05:00,49.8,31.4,29.94,SE,135,3.5,3.5,49,0.00,BKN,,0.00,0.0,WeatherDisplay:10.37,2013-03-11 04:05:00,
2013-03-11 00:10:00,50.0,31.6,29.94,SSE,158,4.6,4.6,49,0.00,BKN,,0.00,0.0,WeatherDisplay:10.37,2013-03-11 04:10:00,
2013-03-11 00:15:00,49.6,31.2,29.94,SE,135,6.9,6.9,49,0.00,BKN,,0.00,0.0,WeatherDisplay:10.37,2013-03-11 04:15:00,
2013-03-11 00:20:00,49.3,30.9,29.94,SSE,158,8.1,8.1,49,0.00,BKN,,0.00,0.0,WeatherDisplay:10.37,2013-03-11 04:20:00,
2013-03-11 00:25:00,49.1,30.7,29.94,SSE,158,6.9,6.9,49,0.00,BKN,,0.00,0.0,WeatherDisplay:10.37,2013-03-11 04:25:00,
2013-03-11 00:30:00,49.1,30.7,29.94,SSE,158,6.9,6.9,49,0.00,BKN,,0.00,0.0,WeatherDisplay:10.37,2013-03-11 04:30:00,
2013-03-11 00:35:00,49.5,31.1,29.94,SE,135,3.5,3.5,49,0.00,BKN,,0.00,0.0,WeatherDisplay:10.37,2013-03-11 04:35:00,
2013-03-11 00:40:00,49.5,31.1,29.94,ESE,112,3.8,3.8,49,0.00,BKN,,0.00,0.0,WeatherDisplay:10.37,2013-03-11 04:40:00,
2013-03-11 00:45:00,48.9,30.6,29.94,ESE,112,5.8,5.8,49,0.00,BKN,,0.00,0.0,WeatherDisplay:10.37,2013-03-11 04:45:00,
2013-03-11 00:50:00,48.7,30.4,29.94,SSW,202,6.0,6.0,49,0.00,BKN,,0.00,0.0,WeatherDisplay:10.37,2013-03-11 04:50:00,
2013-03-11 00:55:00,49.1,30.7,29.94,SSE,158,6.9,6.9,49,0.00,BKN,,0.00,0.0,WeatherDisplay:10.37,2013-03-11 04:55:00,
2013-03-11 01:00:00,49.1,30.7,29.94,SSE,158,5.8,5.8,49,0.00,BKN,,0.00,0.0,WeatherDisplay:10.37,2013-03-11 05:00:00,
2013-03-11 01:05:00,49.3,30.9,29.94,SE,135,7.1,7.1,49,0.00,OVC,,0.00,0.0,WeatherDisplay:10.37,2013-03-11 05:05:00,
2013-03-11 01:10:00,49.3,30.9,29.94,SE,135,8.1,8.1,49,0.00,OVC,,0.00,0.0,WeatherDisplay:10.37,2013-03-11 05:10:00,
2013-03-11 01:15:00,49.5,31.1,29.94,SSE,158,7.1,7.1,49,0.00,OVC,,0.00,0.0,WeatherDisplay:10.37,2013-03-11 05:15:00,
2013-03-11 01:20:00,49.6,31.2,29.94,ESE,112,5.8,5.8,49,0.00,OVC,,0.00,0.0,WeatherDisplay:10.37,2013-03-11 05:20:00,
2013-03-11 01:25:00,50.0,31.6,29.94,ESE,112,6.9,6.9,49,0.00,OVC,,0.00,0.0,WeatherDisplay:10.37,2013-03-11 05:25:00,
2013-03-11 01:30:00,49.8,31.4,29.94,NNE,22,8.1,8.1,49,0.00,OVC,,0.00,0.0,WeatherDisplay:10.37,2013-03-11 05:30:00,
2013-03-11 01:35:00,49.5,31.1,29.94,SE,135,5.8,5.8,49,0.00,OVC,,0.00,0.0,WeatherDisplay:10.37,2013-03-11 05:35:00,
2013-03-11 01:40:00,49.5,31.1,29.94,SSE,158,5.8,5.8,49,0.00,OVC,,0.00,0.0,WeatherDisplay:10.37,2013-03-11 05:40:00,
2013-03-11 01:45:00,49.3,30.9,29.94,SE,135,4.6,4.6,49,0.00,OVC,,0.00,0.0,WeatherDisplay:10.37,2013-03-11 05:45:00,
2013-03-11 01:50:00,49.3,30.9,29.94,SSW,202,5.6,5.6,49,0.00,OVC,,0.00,0.0,WeatherDisplay:10.37,2013-03-11 05:50:00,
2013-03-11 01:55:00,49.5,31.1,29.94,SE,135,6.9,6.9,49,0.00,OVC,,0.00,0.0,WeatherDisplay:10.37,2013-03-11 05:55:00,
2013-03-11 02:00:00,49.6,31.2,29.94,SE,135,5.4,5.4,49,0.00,OVC,,0.00,0.0,WeatherDisplay:10.37,2013-03-11 06:00:00,
2013-03-11 02:05:00,49.6,31.2,29.94,SE,135,5.8,5.8,49,0.00,OVC,,0.00,0.0,WeatherDisplay:10.37,2013-03-11 06:05:00,
2013-03-11 02:10:00,49.8,31.4,29.94,ESE,112,7.6,7.6,49,0.00,OVC,,0.00,0.0,WeatherDisplay:10.37,2013-03-11 06:10:00,
2013-03-11 02:15:00,50.0,31.6,29.94,ESE,112,9.2,9.2,49,0.00,OVC,,0.00,0.0,WeatherDisplay:10.37,2013-03-11 06:15:00,
2013-03-11 02:20:00,50.0,31.6,29.94,South,180,4.7,4.7,49,0.00,OVC,,0.00,0.0,WeatherDisplay:10.37,2013-03-11 06:20:00,
2013-03-11 02:25:00,50.0,31.6,29.94,SSW,202,8.1,8.1,49,0.00,OVC,,0.00,0.0,WeatherDisplay:10.37,2013-03-11 06:25:00,
2013-03-11 02:30:00,50.0,31.6,29.94,SSE,158,8.5,8.5,49,0.00,OVC,,0.00,0.0,WeatherDisplay:10.37,2013-03-11 06:30:00,
2013-03-11 02:35:00,49.8,31.4,29.94,ESE,112,8.1,8.1,49,0.00,OVC,,0.00,0.0,WeatherDisplay:10.37,2013-03-11 06:35:00,
2013-03-11 02:40:00,49.8,31.4,29.94,ESE,112,4.6,4.6,49,0.00,OVC,,0.00,0.0,WeatherDisplay:10.37,2013-03-11 06:40:00,
2013-03-11 02:45:00,49.8,31.4,29.94,ESE,112,4.9,4.9,49,0.00,OVC,,0.00,0.0,WeatherDisplay:10.37,2013-03-11 06:45:00,
2013-03-11 02:50:00,50.2,31.7,29.94,SSE,158,8.1,8.1,49,0.00,OVC,,0.00,0.0,WeatherDisplay:10.37,2013-03-11 06:50:00,
2013-03-11 02:55:00,50.2,31.7,29.94,ESE,112,5.8,5.8,49,0.00,OVC,,0.00,0.0,WeatherDisplay:10.37,2013-03-11 06:55:00,
2013-03-11 03:00:00,50.2,31.7,29.94,SSE,158,4.6,4.6,49,0.00,OVC,,0.00,0.0,WeatherDisplay:10.37,2013-03-11 07:00:00,
2013-03-11 03:05:00,50.2,31.7,29.94,ESE,112,6.9,6.9,49,0.00,OVC,,0.00,0.0,WeatherDisplay:10.37,2013-03-11 07:05:00,
2013-03-11 03:10:00,50.2,31.7,29.91,ESE,112,5.8,5.8,49,0.00,OVC,,0.00,0.0,WeatherDisplay:10.37,2013-03-11 07:10:00,
2013-03-11 03:15:00,50.2,31.7,29.91,ENE,68,5.8,5.8,49,0.00,OVC,,0.00,0.0,WeatherDisplay:10.37,2013-03-11 07:15:00,
2013-03-11 03:20:00,50.0,31.6,29.91,ESE,112,3.5,3.5,49,0.00,OVC,,0.00,0.0,WeatherDisplay:10.37,2013-03-11 07:20:00,
2013-03-11 03:25:00,50.0,31.6,29.94,SSE,158,3.5,3.5,49,0.00,OVC,,0.00,0.0,WeatherDisplay:10.37,2013-03-11 07:25:00,
2013-03-11 03:30:00,50.2,31.7,29.94,ESE,112,4.6,4.6,49,0.00,OVC,,0.00,0.0,WeatherDisplay:10.37,2013-03-11 07:30:00,
2013-03-11 03:35:00,50.0,31.6,29.94,SSE,158,8.1,8.1,49,0.00,OVC,,0.00,0.0,WeatherDisplay:10.37,2013-03-11 07:35:00,
2013-03-11 03:40:00,49.8,31.4,29.91,ESE,112,5.9,5.9,49,0.00,OVC,,0.00,0.0,WeatherDisplay:10.37,2013-03-11 07:40:00,
2013-03-11 03:45:00,49.8,31.4,29.91,NNE,22,8.1,8.1,49,0.00,OVC,,0.00,0.0,WeatherDisplay:10.37,2013-03-11 07:45:00,
2013-03-11 03:50:00,49.8,31.4,29.91,SSE,158,5.4,5.4,49,0.00,OVC,,0.00,0.0,WeatherDisplay:10.37,2013-03-11 07:50:00,
2013-03-11 03:55:00,49.6,31.2,29.91,ESE,112,3.5,3.5,49,0.00,OVC,,0.00,0.0,WeatherDisplay:10.37,2013-03-11 07:55:00,
2013-03-11 04:00:00,49.6,31.2,29.91,SSW,202,3.5,3.5,49,0.00,OVC,,0.00,0.0,WeatherDisplay:10.37,2013-03-11 08:00:00,
2013-03-11 04:05:00,49.8,31.4,29.91,SSE,158,2.6,0.0,49,0.00,OVC,,0.00,0.0,WeatherDisplay:10.37,2013-03-11 08:05:00,
2013-03-11 04:10:00,49.6,31.2,29.91,SE,135,3.6,3.6,49,0.00,OVC,,0.00,0.0,WeatherDisplay:10.37,2013-03-11 08:10:00,
2013-03-11 04:15:00,49.5,31.1,29.91,SE,135,3.5,3.5,49,0.00,OVC,,0.00,0.0,WeatherDisplay:10.37,2013-03-11 08:15:00,
2013-03-11 04:20:00,49.5,31.1,29.91,SE,135,7.4,7.4,49,0.00,OVC,,0.00,0.0,WeatherDisplay:10.37,2013-03-11 08:20:00,
2013-03-11 04:25:00,49.5,31.1,29.88,SSE,158,4.9,4.9,49,0.00,OVC,,0.00,0.0,WeatherDisplay:10.37,2013-03-11 08:25:00,
2013-03-11 04:30:00,49.5,31.1,29.88,ESE,112,5.8,5.8,49,0.00,OVC,,0.00,0.0,WeatherDisplay:10.37,2013-03-11 08:30:00,
2013-03-11 04:35:00,49.3,30.9,29.88,ESE,112,5.8,5.8,49,0.00,OVC,,0.00,0.0,WeatherDisplay:10.37,2013-03-11 08:35:00,
2013-03-11 04:40:00,49.3,30.9,29.88,WSW,248,4.6,4.6,49,0.00,OVC,,0.00,0.0,WeatherDisplay:10.37,2013-03-11 08:40:00,
2013-03-11 04:45:00,49.1,30.7,29.88,SE,135,4.9,4.9,49,0.00,OVC,,0.00,0.0,WeatherDisplay:10.37,2013-03-11 08:45:00,
2013-03-11 04:50:00,49.3,30.9,29.88,SSE,158,5.8,5.8,49,0.00,OVC,,0.00,0.0,WeatherDisplay:10.37,2013-03-11 08:50:00,
2013-03-11 04:55:00,49.3,30.9,29.88,SSE,158,7.8,7.8,49,0.00,OVC,,0.00,0.0,WeatherDisplay:10.37,2013-03-11 08:55:00,
2013-03-11 05:00:00,49.3,30.9,29.88,ESE,112,5.6,5.6,49,0.00,OVC,,0.00,0.0,WeatherDisplay:10.37,2013-03-11 09:00:00,
2013-03-11 05:05:00,49.3,30.9,29.88,ESE,112,5.8,5.8,49,0.00,OVC,,0.00,0.0,WeatherDisplay:10.37,2013-03-11 09:05:00,
2013-03-11 05:10:00,49.3,30.9,29.88,SSW,202,2.4,2.4,49,0.00,OVC,,0.00,0.0,WeatherDisplay:10.37,2013-03-11 09:10:00,
2013-03-11 05:15:00,49.5,31.1,29.88,NNW,338,7.1,7.1,49,0.00,OVC,,0.00,0.0,WeatherDisplay:10.37,2013-03-11 09:15:00,
2013-03-11 05:20:00,49.5,31.1,29.88,SSW,202,4.6,4.6,49,0.00,OVC,,0.00,0.0,WeatherDisplay:10.37,2013-03-11 09:20:00,
2013-03-11 05:25:00,49.5,31.1,29.91,SSE,158,7.1,7.1,49,0.00,OVC,,0.00,0.0,WeatherDisplay:10.37,2013-03-11 09:25:00,
2013-03-11 05:30:00,49.6,31.2,29.91,SSE,158,6.9,6.9,49,0.00,OVC,,0.00,0.0,WeatherDisplay:10.37,2013-03-11 09:30:00,
2013-03-11 05:35:00,49.6,31.2,29.91,ESE,112,5.8,5.8,49,0.00,OVC,,0.00,0.0,WeatherDisplay:10.37,2013-03-11 09:35:00,
2013-03-11 05:41:00,49.3,30.9,29.88,SSW,202,10.4,10.4,49,0.00,OVC,,0.00,0.0,WeatherDisplay:10.37,2013-03-11 09:41:00,
2013-03-11 05:46:00,49.1,30.7,29.88,SE,135,4.9,4.9,49,0.00,OVC,,0.00,0.0,WeatherDisplay:10.37,2013-03-11 09:46:00,
2013-03-11 05:51:00,48.9,30.6,29.88,ESE,112,6.9,6.9,49,0.00,OVC,,0.00,0.0,WeatherDisplay:10.37,2013-03-11 09:51:00,
2013-03-11 05:56:00,48.9,30.6,29.88,ESE,112,12.7,12.7,49,0.00,OVC,,0.00,0.0,WeatherDisplay:10.37,2013-03-11 09:56:00,
2013-03-11 06:01:00,48.7,30.4,29.88,SSE,158,6.9,6.9,49,0.00,OVC,,0.00,0.0,WeatherDisplay:10.37,2013-03-11 10:01:00,
2013-03-11 06:06:00,48.7,30.4,29.88,SSW,202,8.1,8.1,49,0.00,OVC,,0.00,0.0,WeatherDisplay:10.37,2013-03-11 10:06:00,
2013-03-11 06:11:00,48.6,30.2,29.88,SE,135,6.9,6.9,49,0.00,OVC,,0.00,0.0,WeatherDisplay:10.37,2013-03-11 10:11:00,
2013-03-11 06:16:00,48.6,30.2,29.88,ESE,112,7.1,7.1,49,0.00,OVC,,0.00,0.0,WeatherDisplay:10.37,2013-03-11 10:16:00,
2013-03-11 06:21:00,48.6,30.2,29.88,SSE,158,8.5,8.5,49,0.00,OVC,,0.00,0.0,WeatherDisplay:10.37,2013-03-11 10:21:00,
2013-03-11 06:26:00,48.6,30.2,29.88,SE,135,6.4,6.4,49,0.00,OVC,,0.00,0.0,WeatherDisplay:10.37,2013-03-11 10:26:00,
2013-03-11 06:31:00,48.7,30.4,29.88,SSE,158,5.8,5.8,49,0.00,OVC,,0.00,0.0,WeatherDisplay:10.37,2013-03-11 10:31:00,
2013-03-11 06:36:00,48.7,30.4,29.88,ESE,112,5.6,5.6,49,0.00,OVC,,0.00,0.0,WeatherDisplay:10.37,2013-03-11 10:36:00,
2013-03-11 06:41:00,48.7,30.4,29.85,SSE,158,5.8,5.8,49,0.00,OVC,,0.00,0.0,WeatherDisplay:10.37,2013-03-11 10:41:00,
2013-03-11 06:46:00,48.7,30.4,29.85,SSE,158,10.4,10.4,49,0.00,OVC,,0.00,0.0,WeatherDisplay:10.37,2013-03-11 10:46:00,
2013-03-11 06:51:00,48.7,30.4,29.85,SSE,158,5.8,5.8,49,0.00,OVC,,0.00,0.0,WeatherDisplay:10.37,2013-03-11 10:51:00,
2013-03-11 06:56:00,48.7,30.4,29.88,SSE,158,5.8,5.8,49,0.00,OVC,,0.00,0.0,WeatherDisplay:10.37,2013-03-11 10:56:00,
2013-03-11 07:01:00,48.9,30.6,29.88,WNW,292,8.1,8.1,49,0.00,OVC,,0.00,0.0,WeatherDisplay:10.37,2013-03-11 11:01:00,
2013-03-11 07:06:00,49.1,30.7,29.88,ESE,112,8.1,8.1,49,0.00,OVC,,0.00,0.0,WeatherDisplay:10.37,2013-03-11 11:06:00,
2013-03-11 07:11:00,48.9,30.6,29.88,SSE,158,8.1,8.1,49,0.00,OVC,,0.00,0.0,WeatherDisplay:10.37,2013-03-11 11:11:00,
2013-03-11 07:16:00,49.1,30.7,29.88,South,180,4.6,4.6,49,0.00,OVC,,0.00,0.0,WeatherDisplay:10.37,2013-03-11 11:16:00,
2013-03-11 07:21:00,48.9,30.6,29.88,SSW,202,5.8,5.8,49,0.00,OVC,,0.00,0.0,WeatherDisplay:10.37,2013-03-11 11:21:00,
2013-03-11 07:27:00,49.1,30.7,29.88,SE,135,3.5,3.5,49,0.00,OVC,,0.00,0.0,WeatherDisplay:10.37,2013-03-11 11:27:00,
2013-03-11 07:32:00,49.3,30.9,29.88,SSE,158,6.9,6.9,49,0.00,OVC,,0.00,0.0,WeatherDisplay:10.37,2013-03-11 11:32:00,
2013-03-11 07:37:00,49.3,30.9,29.88,SSW,202,4.6,4.6,49,0.00,OVC,,0.00,0.0,WeatherDisplay:10.37,2013-03-11 11:37:00,
2013-03-11 07:42:00,49.1,30.7,29.88,South,180,4.6,4.6,49,0.00,OVC,,0.00,0.0,WeatherDisplay:10.37,2013-03-11 11:42:00,
2013-03-11 07:47:00,49.1,30.7,29.88,SE,135,3.5,0.0,49,0.00,OVC,,0.00,0.0,WeatherDisplay:10.37,2013-03-11 11:47:00,
2013-03-11 07:52:00,48.7,30.4,29.88,SE,135,3.3,0.0,49,0.00,OVC,,0.00,0.0,WeatherDisplay:10.37,2013-03-11 11:52:00,
2013-03-11 07:57:00,48.6,30.2,29.91,SE,135,3.5,3.5,49,0.00,OVC,,0.00,0.0,WeatherDisplay:10.37,2013-03-11 11:57:00,
2013-03-11 08:02:00,48.4,30.1,29.91,SSE,158,2.6,0.0,49,0.00,OVC,,0.00,0.0,WeatherDisplay:10.37,2013-03-11 12:02:00,
2013-03-11 08:07:00,48.2,29.9,29.91,SE,135,2.3,2.3,49,0.00,OVC,,0.00,0.0,WeatherDisplay:10.37,2013-03-11 12:07:00,
2013-03-11 08:12:00,48.0,29.7,29.91,SSE,158,5.8,5.8,49,0.00,OVC,,0.00,0.0,WeatherDisplay:10.37,2013-03-11 12:12:00,
2013-03-11 08:17:00,47.8,29.6,29.91,SE,135,5.9,5.9,49,0.00,OVC,,0.00,0.0,WeatherDisplay:10.37,2013-03-11 12:17:00,
2013-03-11 08:22:00,48.0,29.7,29.91,SE,135,4.6,4.6,49,0.00,OVC,,0.00,0.0,WeatherDisplay:10.37,2013-03-11 12:22:00,
2013-03-11 08:28:00,47.8,29.6,29.88,SSE,158,5.8,5.8,49,0.00,OVC,,0.00,0.0,WeatherDisplay:10.37,2013-03-11 12:28:00,
2013-03-11 08:32:00,47.8,29.6,29.88,SE,135,2.6,2.6,49,0.00,OVC,,0.00,0.0,WeatherDisplay:10.37,2013-03-11 12:32:00,
2013-03-11 08:38:00,48.0,29.7,29.88,SSE,158,5.8,5.8,49,0.00,OVC,,0.00,0.0,WeatherDisplay:10.37,2013-03-11 12:38:00,
2013-03-11 08:43:00,48.2,29.9,29.91,ESE,112,4.6,4.6,49,0.00,OVC,,0.00,0.0,WeatherDisplay:10.37,2013-03-11 12:43:00,
2013-03-11 08:48:00,48.4,30.1,29.91,ESE,112,5.8,5.8,49,0.00,OVC,,0.00,0.0,WeatherDisplay:10.37,2013-03-11 12:48:00,
2013-03-11 08:53:00,48.6,30.2,29.91,ESE,112,5.8,5.8,49,0.00,OVC,,0.00,0.0,WeatherDisplay:10.37,2013-03-11 12:53:00,
2013-03-11 08:58:00,48.6,30.2,29.91,SE,135,9.2,9.2,49,0.00,OVC,,0.00,0.0,WeatherDisplay:10.37,2013-03-11 12:58:00,
2013-03-11 09:03:00,48.7,30.4,29.91,SSE,158,5.8,5.8,49,0.00,OVC,,0.00,0.0,WeatherDisplay:10.37,2013-03-11 13:03:00,
2013-03-11 09:08:00,48.7,30.4,29.91,SE,135,8.1,8.1,49,0.00,OVC,,0.00,0.0,WeatherDisplay:10.37,2013-03-11 13:08:00,
2013-03-11 09:13:00,48.7,30.4,29.88,ESE,112,6.0,6.0,49,0.00,OVC,,0.00,0.0,WeatherDisplay:10.37,2013-03-11 13:13:00,
2013-03-11 09:18:00,48.9,30.6,29.88,SE,135,8.1,8.1,49,0.00,OVC,,0.00,0.0,WeatherDisplay:10.37,2013-03-11 13:18:00,
2013-03-11 09:23:00,48.9,30.6,29.88,South,180,5.8,5.8,49,0.00,OVC,,0.00,0.0,WeatherDisplay:10.37,2013-03-11 13:23:00,
2013-03-11 09:28:00,49.3,30.9,29.91,SSW,202,5.8,5.8,49,0.00,OVC,,0.00,0.0,WeatherDisplay:10.37,2013-03-11 13:28:00,
2013-03-11 09:33:00,49.5,31.1,29.91,SSW,202,4.9,4.9,49,0.00,OVC,,0.00,0.0,WeatherDisplay:10.37,2013-03-11 13:33:00,
2013-03-11 09:38:00,49.5,31.1,29.94,SE,135,3.8,3.8,49,0.00,OVC,,0.00,0.0,WeatherDisplay:10.37,2013-03-11 13:38:00,
2013-03-11 09:43:00,49.6,31.2,29.94,SSE,158,6.9,6.9,49,0.00,OVC,,0.00,0.0,WeatherDisplay:10.37,2013-03-11 13:43:00,
2013-03-11 09:48:00,49.5,31.1,29.94,SSE,158,6.9,6.9,49,0.00,OVC,,0.00,0.0,WeatherDisplay:10.37,2013-03-11 13:48:00,
2013-03-11 09:53:00,49.5,31.1,29.94,ESE,112,9.2,9.2,49,0.00,OVC,,0.00,0.0,WeatherDisplay:10.37,2013-03-11 13:53:00,
2013-03-11 09:58:00,49.3,30.9,29.91,ESE,112,3.5,3.5,49,0.00,OVC,,0.00,0.0,WeatherDisplay:10.37,2013-03-11 13:58:00,
2013-03-11 10:03:00,49.3,30.9,29.91,WSW,248,5.8,5.8,49,0.00,OVC,,0.00,0.0,WeatherDisplay:10.37,2013-03-11 14:03:00,
2013-03-11 10:08:00,49.5,31.1,29.91,SSE,158,8.5,8.5,49,0.00,OVC,,0.00,0.0,WeatherDisplay:10.37,2013-03-11 14:08:00,
2013-03-11 10:13:00,49.6,31.2,29.91,South,180,5.9,5.9,49,0.00,OVC,,0.00,0.0,WeatherDisplay:10.37,2013-03-11 14:13:00,
2013-03-11 10:18:00,49.6,31.2,29.91,SSW,202,4.3,4.3,49,0.00,OVC,,0.00,0.0,WeatherDisplay:10.37,2013-03-11 14:18:00,
2013-03-11 10:23:00,49.8,31.4,29.91,SSE,158,9.2,9.2,49,0.00,OVC,,0.00,0.0,WeatherDisplay:10.37,2013-03-11 14:23:00,
2013-03-11 10:28:00,49.8,31.4,29.91,SSE,158,9.2,9.2,49,0.00,OVC,,0.00,0.0,WeatherDisplay:10.37,2013-03-11 14:28:00,
2013-03-11 10:33:00,49.8,31.4,29.91,SE,135,5.8,5.8,49,0.00,OVC,,0.00,0.0,WeatherDisplay:10.37,2013-03-11 14:33:00,
2013-03-11 10:38:00,50.0,31.6,29.88,SSE,158,6.9,6.9,49,0.00,OVC,,0.00,0.0,WeatherDisplay:10.37,2013-03-11 14:38:00,
2013-03-11 10:43:00,50.0,31.6,29.88,SSE,158,9.2,9.2,49,0.00,OVC,,0.00,0.0,WeatherDisplay:10.37,2013-03-11 14:43:00,
2013-03-11 10:48:00,50.0,31.6,29.88,SSE,158,6.4,6.4,49,0.00,OVC,,0.00,0.0,WeatherDisplay:10.37,2013-03-11 14:48:00,
2013-03-11 10:53:00,50.0,31.6,29.85,SSE,158,7.1,7.1,49,0.00,OVC,,0.00,0.0,WeatherDisplay:10.37,2013-03-11 14:53:00,
2013-03-11 10:58:00,50.0,31.6,29.85,South,180,9.2,9.2,49,0.00,OVC,,0.00,0.0,WeatherDisplay:10.37,2013-03-11 14:58:00,
2013-03-11 11:03:00,50.2,31.7,29.85,South,180,9.0,9.0,49,0.00,OVC,,0.00,0.0,WeatherDisplay:10.37,2013-03-11 15:03:00,
2013-03-11 11:08:00,50.2,31.7,29.88,SE,135,4.9,4.9,49,0.00,OVC,,0.00,0.0,WeatherDisplay:10.37,2013-03-11 15:08:00,
2013-03-11 11:13:00,50.2,31.7,29.88,SSE,158,3.5,3.5,49,0.00,OVC,,0.00,0.0,WeatherDisplay:10.37,2013-03-11 15:13:00,
2013-03-11 11:18:00,50.2,31.7,29.88,ESE,112,6.9,6.9,49,0.00,OVC,,0.00,0.0,WeatherDisplay:10.37,2013-03-11 15:18:00,
2013-03-11 11:23:00,50.2,31.7,29.88,SW,225,6.9,6.9,49,0.00,OVC,,0.00,0.0,WeatherDisplay:10.37,2013-03-11 15:23:00,
2013-03-11 11:28:00,50.4,31.9,29.88,NNE,22,4.9,4.9,49,0.00,OVC,,0.00,0.0,WeatherDisplay:10.37,2013-03-11 15:28:00,
2013-03-11 11:33:00,50.5,32.1,29.88,SSE,158,3.5,3.5,49,0.00,OVC,,0.00,0.0,WeatherDisplay:10.37,2013-03-11 15:33:00,
2013-03-11 11:38:00,50.7,32.2,29.91,SSW,202,4.3,4.3,49,0.00,OVC,,0.00,0.0,WeatherDisplay:10.37,2013-03-11 15:38:00,
2013-03-11 11:43:00,50.9,32.4,29.91,SE,135,5.8,5.8,49,0.00,OVC,,0.00,0.0,WeatherDisplay:10.37,2013-03-11 15:43:00,
2013-03-11 11:48:00,51.1,32.6,29.91,ENE,68,5.8,5.8,49,0.00,OVC,,0.00,0.0,WeatherDisplay:10.37,2013-03-11 15:48:00,
2013-03-11 11:53:00,51.1,32.6,29.91,SSE,158,5.4,5.4,49,0.00,OVC,,0.00,0.0,WeatherDisplay:10.37,2013-03-11 15:53:00,
2013-03-11 11:58:00,50.9,32.4,29.91,ESE,112,5.6,5.6,49,0.00,OVC,,0.00,0.0,WeatherDisplay:10.37,2013-03-11 15:58:00,
2013-03-11 12:03:00,50.9,32.4,29.91,SSE,158,4.6,4.6,49,0.00,OVC,,0.00,0.0,WeatherDisplay:10.37,2013-03-11 16:03:00,
2013-03-11 12:08:00,50.9,32.4,29.88,SE,135,5.8,5.8,49,0.00,OVC,,0.00,0.0,WeatherDisplay:10.37,2013-03-11 16:08:00,
2013-03-11 12:14:00,51.1,32.6,29.88,SSE,158,6.4,6.4,49,0.00,OVC,,0.00,0.0,WeatherDisplay:10.37,2013-03-11 16:14:00,
2013-03-11 12:19:00,51.3,32.7,29.88,East,90,5.8,5.8,49,0.00,OVC,,0.00,0.0,WeatherDisplay:10.37,2013-03-11 16:19:00,
2013-03-11 12:24:00,51.3,32.7,29.88,ESE,112,8.1,8.1,49,0.00,OVC,,0.00,0.0,WeatherDisplay:10.37,2013-03-11 16:24:00,
2013-03-11 12:29:00,51.3,32.7,29.88,ESE,112,10.4,10.4,49,0.00,OVC,,0.00,0.0,WeatherDisplay:10.37,2013-03-11 16:29:00,
2013-03-11 12:34:00,51.3,32.7,29.88,ESE,112,5.8,5.8,49,0.00,OVC,,0.00,0.0,WeatherDisplay:10.37,2013-03-11 16:34:00,
2013-03-11 12:39:00,51.4,32.9,29.88,SE,135,7.1,7.1,49,0.00,OVC,,0.00,0.0,WeatherDisplay:10.37,2013-03-11 16:39:00,
2013-03-11 12:44:00,51.4,32.9,29.88,SSE,158,6.9,6.9,49,0.00,OVC,,0.00,0.0,WeatherDisplay:10.37,2013-03-11 16:44:00,
2013-03-11 12:49:00,51.4,32.9,29.88,ESE,112,8.1,8.1,49,0.00,OVC,,0.00,0.0,WeatherDisplay:10.37,2013-03-11 16:49:00,
2013-03-11 12:54:00,51.4,32.9,29.85,ENE,68,5.8,5.8,49,0.00,OVC,,0.00,0.0,WeatherDisplay:10.37,2013-03-11 16:54:00,
2013-03-11 12:59:00,51.4,32.9,29.85,SE,135,6.9,6.9,49,0.00,OVC,,0.00,0.0,WeatherDisplay:10.37,2013-03-11 16:59:00,
2013-03-11 13:04:00,51.6,33.1,29.85,ESE,112,7.1,7.1,49,0.00,OVC,,0.00,0.0,WeatherDisplay:10.37,2013-03-11 17:04:00,
2013-03-11 13:09:00,51.6,33.1,29.85,ESE,112,5.8,5.8,49,0.00,OVC,,0.00,0.0,WeatherDisplay:10.37,2013-03-11 17:09:00,
2013-03-11 13:14:00,51.6,33.1,29.85,SSW,202,5.8,5.8,49,0.00,OVC,,0.00,0.0,WeatherDisplay:10.37,2013-03-11 17:14:00,
2013-03-11 13:19:00,51.6,33.1,29.85,WSW,248,6.9,6.9,49,0.00,OVC,,0.00,0.0,WeatherDisplay:10.37,2013-03-11 17:19:00,
2013-03-11 13:24:00,51.6,33.1,29.85,SE,135,8.1,8.1,49,0.00,OVC,,0.00,0.0,WeatherDisplay:10.37,2013-03-11 17:24:00,
2013-03-11 13:29:00,51.6,33.1,29.85,ESE,112,8.1,8.1,49,0.00,OVC,,0.00,0.0,WeatherDisplay:10.37,2013-03-11 17:29:00,
2013-03-11 13:34:00,51.8,32.7,29.85,SSW,202,11.5,11.5,48,0.00,OVC,,0.00,0.0,WeatherDisplay:10.37,2013-03-11 17:34:00,
2013-03-11 13:39:00,52.0,32.9,29.83,South,180,6.9,6.9,48,0.00,OVC,,0.00,0.0,WeatherDisplay:10.37,2013-03-11 17:39:00,
2013-03-11 13:44:00,52.2,33.0,29.83,ESE,112,9.2,9.2,48,0.00,OVC,,0.00,0.0,WeatherDisplay:10.37,2013-03-11 17:44:00,
2013-03-11 13:49:00,52.3,33.2,29.83,ESE,112,5.8,5.8,48,0.00,OVC,,0.00,0.0,WeatherDisplay:10.37,2013-03-11 17:49:00,
2013-03-11 13:54:00,52.2,33.0,29.83,SSE,158,8.1,8.1,48,0.00,OVC,,0.00,0.0,WeatherDisplay:10.37,2013-03-11 17:54:00,
2013-03-11 13:59:00,52.3,33.2,29.83,SE,135,9.2,9.2,48,0.00,OVC,,0.00,0.0,WeatherDisplay:10.37,2013-03-11 17:59:00,
2013-03-11 14:04:00,52.3,33.2,29.83,SSE,158,11.5,11.5,48,0.00,SCT,,0.00,0.0,WeatherDisplay:10.37,2013-03-11 18:04:00,
2013-03-11 14:09:00,52.3,33.2,29.80,ESE,112,9.7,9.7,48,0.00,SCT,,0.00,0.0,WeatherDisplay:10.37,2013-03-11 18:09:00,
2013-03-11 14:14:00,52.3,33.2,29.80,SSE,158,13.0,13.0,48,0.00,SCT,,0.00,0.0,WeatherDisplay:10.37,2013-03-11 18:14:00,
2013-03-11 14:19:00,52.5,33.4,29.80,SE,135,8.1,8.1,48,0.00,SCT,,0.00,0.0,WeatherDisplay:10.37,2013-03-11 18:19:00,
2013-03-11 14:24:00,52.9,33.7,29.83,ESE,112,11.5,11.5,48,0.00,SCT,,0.00,0.0,WeatherDisplay:10.37,2013-03-11 18:24:00,
2013-03-11 14:29:00,53.1,33.9,29.83,ESE,112,10.4,10.4,48,0.00,SCT,,0.00,0.0,WeatherDisplay:10.37,2013-03-11 18:29:00,
2013-03-11 14:34:00,53.1,33.9,29.83,SSE,158,10.4,10.4,48,0.00,SCT,,0.00,0.0,WeatherDisplay:10.37,2013-03-11 18:34:00,
2013-03-11 14:39:00,53.1,33.9,29.83,SSE,158,10.4,10.4,48,0.00,SCT,,0.00,0.0,WeatherDisplay:10.37,2013-03-11 18:39:00,
2013-03-11 14:44:00,53.2,34.0,29.83,SE,135,8.1,8.1,48,0.00,SCT,,0.00,0.0,WeatherDisplay:10.37,2013-03-11 18:44:00,
2013-03-11 14:49:00,53.2,34.0,29.83,ENE,68,8.5,8.5,48,0.00,SCT,,0.00,0.0,WeatherDisplay:10.37,2013-03-11 18:49:00,
2013-03-11 14:54:00,53.8,34.5,29.80,ESE,112,9.2,9.2,48,0.00,SCT,,0.00,100.0,WeatherDisplay:10.37,2013-03-11 18:54:00,
2013-03-11 14:59:00,54.1,34.9,29.80,ESE,112,16.1,16.1,48,0.00,SCT,,0.00,100.0,WeatherDisplay:10.37,2013-03-11 18:59:00,
2013-03-11 15:04:00,54.3,35.0,29.80,NNE,22,9.2,9.2,48,0.00,OVC,,0.00,100.0,WeatherDisplay:10.37,2013-03-11 19:04:00,
2013-03-11 15:09:00,54.5,35.2,29.80,SSE,158,10.5,10.5,48,0.00,OVC,,0.00,0.0,WeatherDisplay:10.37,2013-03-11 19:09:00,
2013-03-11 15:14:00,54.5,35.2,29.80,West,270,6.9,6.9,48,0.00,OVC,,0.00,0.0,WeatherDisplay:10.37,2013-03-11 19:14:00,
2013-03-11 15:19:00,54.1,34.9,29.80,ESE,112,5.8,5.8,48,0.00,OVC,,0.00,0.0,WeatherDisplay:10.37,2013-03-11 19:19:00,
2013-03-11 15:24:00,54.1,34.9,29.77,SSE,158,12.7,12.7,48,0.00,OVC,,0.00,0.0,WeatherDisplay:10.37,2013-03-11 19:24:00,
2013-03-11 15:29:00,54.1,34.9,29.77,ESE,112,5.8,5.8,48,0.00,OVC,,0.00,0.0,WeatherDisplay:10.37,2013-03-11 19:29:00,
2013-03-11 15:34:00,54.1,34.9,29.77,SE,135,12.7,12.7,48,0.00,OVC,,0.00,0.0,WeatherDisplay:10.37,2013-03-11 19:34:00,
2013-03-11 15:39:00,54.3,35.0,29.77,SSE,158,8.1,8.1,48,0.00,OVC,,0.00,0.0,WeatherDisplay:10.37,2013-03-11 19:39:00,
2013-03-11 15:44:00,54.5,35.2,29.77,ESE,112,9.7,9.7,48,0.00,OVC,,0.00,0.0,WeatherDisplay:10.37,2013-03-11 19:44:00,
2013-03-11 15:49:00,54.5,35.2,29.77,ESE,112,8.1,8.1,48,0.00,OVC,,0.00,0.0,WeatherDisplay:10.37,2013-03-11 19:49:00,
2013-03-11 15:54:00,54.3,35.0,29.77,NE,45,10.4,10.4,48,0.00,OVC,,0.00,0.0,WeatherDisplay:10.37,2013-03-11 19:54:00,
2013-03-11 15:59:00,54.1,34.9,29.77,ESE,112,12.7,12.7,48,0.00,OVC,,0.00,0.0,WeatherDisplay:10.37,2013-03-11 19:59:00,
2013-03-11 16:04:00,54.1,34.9,29.77,SE,135,12.5,12.5,48,0.00,OVC,,0.00,0.0,WeatherDisplay:10.37,2013-03-11 20:04:00,
2013-03-11 16:09:00,54.1,34.9,29.77,ESE,112,5.8,5.8,48,0.00,OVC,,0.00,0.0,WeatherDisplay:10.37,2013-03-11 20:09:00,
2013-03-11 16:14:00,54.1,34.9,29.77,SSW,202,6.9,6.9,48,0.00,OVC,,0.00,0.0,WeatherDisplay:10.37,2013-03-11 20:14:00,
2013-03-11 16:19:00,54.3,35.0,29.77,ESE,112,10.4,10.4,48,0.00,OVC,,0.00,0.0,WeatherDisplay:10.37,2013-03-11 20:19:00,
2013-03-11 16:24:00,54.5,35.2,29.77,SE,135,9.2,9.2,48,0.00,OVC,,0.00,0.0,WeatherDisplay:10.37,2013-03-11 20:24:00,
2013-03-11 16:29:00,54.5,35.2,29.77,SSE,158,9.2,9.2,48,0.00,OVC,,0.00,0.0,WeatherDisplay:10.37,2013-03-11 20:29:00,
2013-03-11 16:34:00,54.5,35.2,29.77,ESE,112,10.4,10.4,48,0.00,OVC,,0.00,0.0,WeatherDisplay:10.37,2013-03-11 20:34:00,
2013-03-11 16:39:00,54.5,35.2,29.77,South,180,8.1,8.1,48,0.00,OVC,,0.00,0.0,WeatherDisplay:10.37,2013-03-11 20:39:00,
2013-03-11 16:44:00,54.5,35.2,29.77,SSE,158,15.2,15.2,48,0.00,OVC,,0.00,0.0,WeatherDisplay:10.37,2013-03-11 20:44:00,
2013-03-11 16:49:00,54.3,35.0,29.77,SSE,158,9.2,9.2,48,0.00,OVC,,0.00,0.0,WeatherDisplay:10.37,2013-03-11 20:49:00,
2013-03-11 16:54:00,54.3,35.0,29.77,SSE,158,8.1,8.1,48,0.00,OVC,,0.00,0.0,WeatherDisplay:10.37,2013-03-11 20:54:00,
2013-03-11 16:59:00,54.3,35.0,29.77,SSE,158,9.2,9.2,48,0.00,OVC,,0.00,0.0,WeatherDisplay:10.37,2013-03-11 20:59:00,
2013-03-11 17:04:00,54.3,35.0,29.77,SSW,202,8.1,8.1,48,0.00,OVC,,0.00,0.0,WeatherDisplay:10.37,2013-03-11 21:04:00,
2013-03-11 17:09:00,54.3,35.0,29.77,SSE,158,6.0,6.0,48,0.00,OVC,,0.00,0.0,WeatherDisplay:10.37,2013-03-11 21:09:00,
2013-03-11 17:14:00,54.5,35.2,29.77,SSE,158,9.2,9.2,48,0.00,OVC,,0.00,0.0,WeatherDisplay:10.37,2013-03-11 21:14:00,
2013-03-11 17:19:00,54.5,35.2,29.77,SSE,158,8.1,8.1,48,0.00,OVC,,0.00,0.0,WeatherDisplay:10.37,2013-03-11 21:19:00,
2013-03-11 17:24:00,54.5,35.2,29.74,SSE,158,8.1,8.1,48,0.00,OVC,,0.00,0.0,WeatherDisplay:10.37,2013-03-11 21:24:00,
2013-03-11 17:29:00,54.5,35.2,29.74,ESE,112,12.7,12.7,48,0.00,OVC,,0.00,0.0,WeatherDisplay:10.37,2013-03-11 21:29:00,
2013-03-11 17:34:00,54.5,35.2,29.74,ESE,112,13.0,13.0,48,0.00,OVC,,0.00,0.0,WeatherDisplay:10.37,2013-03-11 21:34:00,
2013-03-11 17:39:00,54.5,35.2,29.74,WNW,292,17.3,17.3,48,0.00,OVC,,0.00,0.0,WeatherDisplay:10.37,2013-03-11 21:39:00,
2013-03-11 17:44:00,54.5,35.2,29.74,NNE,22,12.7,12.7,48,0.00,OVC,,0.00,0.0,WeatherDisplay:10.37,2013-03-11 21:44:00,
2013-03-11 17:49:00,54.3,35.0,29.74,SSE,158,13.8,13.8,48,0.00,OVC,,0.00,0.0,WeatherDisplay:10.37,2013-03-11 21:49:00,
2013-03-11 17:54:00,54.3,35.0,29.71,SSE,158,15.0,15.0,48,0.00,OVC,,0.00,0.0,WeatherDisplay:10.37,2013-03-11 21:54:00,
2013-03-11 17:59:00,54.3,35.0,29.71,SSW,202,10.4,10.4,48,0.00,OVC,,0.00,0.0,WeatherDisplay:10.37,2013-03-11 21:59:00,
2013-03-11 18:04:00,54.3,35.0,29.71,SSW,202,5.8,5.8,48,0.00,OVC,,0.00,0.0,WeatherDisplay:10.37,2013-03-11 22:04:00,
2013-03-11 18:09:00,54.1,34.9,29.71,SSE,158,7.4,7.4,48,0.00,OVC,,0.00,0.0,WeatherDisplay:10.37,2013-03-11 22:09:00,
2013-03-11 18:14:00,54.0,34.7,29.71,South,180,8.1,8.1,48,0.00,OVC,,0.00,0.0,WeatherDisplay:10.37,2013-03-11 22:14:00,
2013-03-11 18:19:00,54.0,34.7,29.71,South,180,10.4,10.4,48,0.00,OVC,,0.00,0.0,WeatherDisplay:10.37,2013-03-11 22:19:00,
2013-03-11 18:24:00,54.1,34.9,29.71,South,180,17.3,17.3,48,0.00,OVC,,0.00,0.0,WeatherDisplay:10.37,2013-03-11 22:24:00,
2013-03-11 18:29:00,54.0,34.7,29.71,South,180,15.2,15.2,48,0.00,OVC,,0.00,0.0,WeatherDisplay:10.37,2013-03-11 22:29:00,
2013-03-11 18:34:00,54.0,34.7,29.71,WSW,248,15.0,15.0,48,0.00,OVC,,0.00,0.0,WeatherDisplay:10.37,2013-03-11 22:34:00,
2013-03-11 18:39:00,54.0,34.7,29.71,SSW,202,13.8,13.8,48,0.00,OVC,,0.00,0.0,WeatherDisplay:10.37,2013-03-11 22:39:00,
2013-03-11 18:44:00,53.8,34.5,29.71,SSW,202,12.7,12.7,48,0.00,OVC,,0.00,0.0,WeatherDisplay:10.37,2013-03-11 22:44:00,
2013-03-11 18:49:00,53.6,34.4,29.71,SSW,202,15.0,15.0,48,0.00,OVC,,0.00,0.0,WeatherDisplay:10.37,2013-03-11 22:49:00,
2013-03-11 18:54:00,53.6,34.4,29.71,SSW,202,8.1,8.1,48,0.00,OVC,,0.00,0.0,WeatherDisplay:10.37,2013-03-11 22:54:00,
2013-03-11 18:59:00,53.6,34.4,29.71,SSE,158,9.2,9.2,48,0.00,OVC,,0.00,0.0,WeatherDisplay:10.37,2013-03-11 22:59:00,
2013-03-11 19:04:00,53.4,34.2,29.71,South,180,10.4,10.4,48,0.00,OVC,,0.00,0.0,WeatherDisplay:10.37,2013-03-11 23:04:00,
2013-03-11 19:09:00,53.6,34.4,29.71,SSE,158,13.0,13.0,48,0.00,OVC,,0.00,0.0,WeatherDisplay:10.37,2013-03-11 23:09:00,
2013-03-11 19:14:00,53.6,34.4,29.71,SW,225,19.6,19.6,48,0.00,OVC,,0.00,0.0,WeatherDisplay:10.37,2013-03-11 23:14:00,
2013-03-11 19:19:00,53.6,34.4,29.71,SSW,202,15.0,15.0,48,0.00,OVC,,0.00,0.0,WeatherDisplay:10.37,2013-03-11 23:19:00,
2013-03-11 19:24:00,53.4,34.2,29.71,ESE,112,9.8,9.8,48,0.00,OVC,,0.00,0.0,WeatherDisplay:10.37,2013-03-11 23:24:00,
2013-03-11 19:29:00,53.4,34.2,29.71,SSE,158,19.6,19.6,48,0.00,OVC,,0.00,0.0,WeatherDisplay:10.37,2013-03-11 23:29:00,
2013-03-11 19:34:00,53.4,34.2,29.71,SSE,158,12.7,12.7,48,0.00,OVC,,0.00,0.0,WeatherDisplay:10.37,2013-03-11 23:34:00,
2013-03-11 19:39:00,53.2,34.0,29.68,SSW,202,10.4,10.4,48,0.00,OVC,,0.00,0.0,WeatherDisplay:10.37,2013-03-11 23:39:00,
2013-03-11 19:44:00,53.2,34.0,29.68,South,180,10.4,10.4,48,0.00,OVC,,0.00,0.0,WeatherDisplay:10.37,2013-03-11 23:44:00,
2013-03-11 19:49:00,53.4,34.2,29.68,SSE,158,12.7,12.7,48,0.00,OVC,,0.00,0.0,WeatherDisplay:10.37,2013-03-11 23:49:00,
2013-03-11 19:54:00,53.4,34.2,29.68,ESE,112,15.0,15.0,48,0.00,OVC,,0.00,0.0,WeatherDisplay:10.37,2013-03-11 23:54:00,
2013-03-11 19:59:00,53.4,34.2,29.68,ESE,112,12.7,12.7,48,0.00,OVC,,0.00,0.0,WeatherDisplay:10.37,2013-03-11 23:59:00,
2013-03-11 20:04:00,53.8,34.5,29.68,SSW,202,21.9,21.9,48,0.00,OVC,,0.00,0.0,WeatherDisplay:10.37,2013-03-12 00:04:00,
2013-03-11 20:09:00,53.8,34.5,29.68,SSW,202,10.9,10.9,48,0.00,OVC,,0.00,0.0,WeatherDisplay:10.37,2013-03-12 00:09:00,
2013-03-11 20:14:00,53.8,34.5,29.68,South,180,14.5,14.5,48,0.00,OVC,,0.00,0.0,WeatherDisplay:10.37,2013-03-12 00:14:00,
2013-03-11 20:19:00,54.0,34.7,29.68,SSE,158,18.4,18.4,48,0.00,OVC,,0.00,0.0,WeatherDisplay:10.37,2013-03-12 00:19:00,
2013-03-11 20:24:00,54.0,34.7,29.68,WSW,248,15.0,15.0,48,0.00,OVC,,0.00,0.0,WeatherDisplay:10.37,2013-03-12 00:24:00,
2013-03-11 20:29:00,54.0,34.7,29.68,SSW,202,15.0,15.0,48,0.00,OVC,,0.00,0.0,WeatherDisplay:10.37,2013-03-12 00:29:00,
2013-03-11 20:34:00,54.0,34.7,29.68,SSE,166,8.0,23.0,48,0.00,OVC,,0.00,0.0,WeatherDisplay:10.37,2013-03-12 00:34:00,
2013-03-11 20:40:00,53.6,34.4,29.71,SSE,158,15.9,15.9,48,0.00,OVC,,0.00,0.0,WeatherDisplay:10.37,2013-03-12 00:40:00,
2013-03-11 20:44:00,53.6,34.4,29.71,SSE,168,9.0,18.0,48,0.00,OVC,,0.00,0.0,WeatherDisplay:10.37,2013-03-12 00:44:00,
2013-03-11 20:50:00,53.6,34.4,29.71,SSW,202,15.0,15.0,48,0.00,OVC,,0.00,0.0,WeatherDisplay:10.37,2013-03-12 00:50:00,
2013-03-11 20:55:00,54.0,34.7,29.71,SSW,202,15.0,15.0,48,0.00,OVC,,0.00,0.0,WeatherDisplay:10.37,2013-03-12 00:55:00,
2013-03-11 21:00:00,53.8,34.5,29.71,SSW,202,13.0,13.0,48,0.00,OVC,,0.00,0.0,WeatherDisplay:10.37,2013-03-12 01:00:00,
2013-03-11 21:05:00,54.0,34.7,29.71,SSE,158,17.3,17.3,48,0.00,OVC,,0.00,0.0,WeatherDisplay:10.37,2013-03-12 01:05:00,
2013-03-11 21:10:00,54.0,34.7,29.68,SSE,158,17.3,17.3,48,0.00,OVC,,0.00,0.0,WeatherDisplay:10.37,2013-03-12 01:10:00,
2013-03-11 21:15:00,53.8,34.5,29.68,SE,135,12.1,12.1,48,0.00,OVC,,0.00,0.0,WeatherDisplay:10.37,2013-03-12 01:15:00,
2013-03-11 21:20:00,53.8,34.5,29.68,SE,135,12.7,12.7,48,0.00,OVC,,0.00,0.0,WeatherDisplay:10.37,2013-03-12 01:20:00,
2013-03-11 21:25:00,53.8,34.5,29.68,SSE,158,13.8,13.8,48,0.00,OVC,,0.00,0.0,WeatherDisplay:10.37,2013-03-12 01:25:00,
2013-03-11 21:30:00,53.8,34.5,29.68,SSW,202,9.8,9.8,48,0.00,OVC,,0.00,0.0,WeatherDisplay:10.37,2013-03-12 01:30:00,
2013-03-11 21:35:00,54.0,34.7,29.68,South,180,8.1,8.1,48,0.00,OVC,,0.00,0.0,WeatherDisplay:10.37,2013-03-12 01:35:00,
2013-03-11 21:40:00,54.0,34.7,29.65,ESE,112,11.5,11.5,48,0.00,OVC,,0.00,0.0,WeatherDisplay:10.37,2013-03-12 01:40:00,
2013-03-11 21:45:00,53.8,34.5,29.65,South,180,8.7,8.7,48,0.00,OVC,,0.00,0.0,WeatherDisplay:10.37,2013-03-12 01:45:00,
2013-03-11 21:50:00,53.8,34.5,29.65,South,180,10.4,10.4,48,0.00,OVC,,0.00,0.0,WeatherDisplay:10.37,2013-03-12 01:50:00,
2013-03-11 21:55:00,54.0,34.7,29.68,ESE,112,13.8,13.8,48,0.00,OVC,,0.00,0.0,WeatherDisplay:10.37,2013-03-12 01:55:00,
2013-03-11 22:00:00,54.0,34.7,29.68,ESE,112,13.8,13.8,48,0.00,OVC,,0.00,0.0,WeatherDisplay:10.37,2013-03-12 02:00:00,
2013-03-11 22:05:00,54.1,34.9,29.68,SSW,202,17.3,17.3,48,0.00,BKN,,0.00,0.0,WeatherDisplay:10.37,2013-03-12 02:05:00,
2013-03-11 22:10:00,54.3,35.0,29.68,SE,135,10.4,10.4,48,0.00,BKN,,0.00,0.0,WeatherDisplay:10.37,2013-03-12 02:10:00,
2013-03-11 22:15:00,54.1,34.9,29.68,SSW,202,7.1,7.4,48,0.00,BKN,,0.00,0.0,WeatherDisplay:10.37,2013-03-12 02:15:00,
2013-03-11 22:20:00,54.3,35.0,29.68,SSE,158,12.7,12.7,48,0.00,BKN,,0.00,0.0,WeatherDisplay:10.37,2013-03-12 02:20:00,
2013-03-11 22:25:00,54.5,35.2,29.68,SSE,158,16.1,16.1,48,0.00,BKN,,0.00,0.0,WeatherDisplay:10.37,2013-03-12 02:25:00,
2013-03-11 22:30:00,54.5,35.2,29.68,SE,135,17.5,17.5,48,0.00,BKN,,0.00,0.0,WeatherDisplay:10.37,2013-03-12 02:30:00,
2013-03-11 22:35:00,54.5,35.2,29.68,SSE,158,11.5,11.5,48,0.00,BKN,,0.00,0.0,WeatherDisplay:10.37,2013-03-12 02:35:00,
2013-03-11 22:40:00,54.3,35.0,29.68,SSW,202,15.2,15.2,48,0.00,BKN,,0.00,0.0,WeatherDisplay:10.37,2013-03-12 02:40:00,
2013-03-11 22:45:00,54.5,35.2,29.68,SSW,202,13.8,13.8,48,0.00,BKN,,0.00,0.0,WeatherDisplay:10.37,2013-03-12 02:45:00,
2013-03-11 22:50:00,54.3,35.0,29.68,SSE,158,10.2,10.2,48,0.00,BKN,,0.00,0.0,WeatherDisplay:10.37,2013-03-12 02:50:00,
2013-03-11 22:55:00,54.5,35.2,29.65,WSW,248,10.5,10.5,48,0.00,BKN,,0.00,0.0,WeatherDisplay:10.37,2013-03-12 02:55:00,
2013-03-11 23:00:00,54.5,35.2,29.65,SSW,202,12.7,12.7,48,0.00,BKN,,0.00,0.0,WeatherDisplay:10.37,2013-03-12 03:00:00,
2013-03-11 23:05:00,54.5,35.2,29.65,SSW,202,11.5,11.5,48,0.00,BKN,,0.00,0.0,WeatherDisplay:10.37,2013-03-12 03:05:00,
2013-03-11 23:10:00,54.5,35.2,29.65,SSE,158,8.5,8.5,48,0.00,BKN,,0.00,0.0,WeatherDisplay:10.37,2013-03-12 03:10:00,
2013-03-11 23:15:00,54.5,35.2,29.65,South,180,10.4,10.4,48,0.00,BKN,,0.00,0.0,WeatherDisplay:10.37,2013-03-12 03:15:00,
2013-03-11 23:20:00,54.5,35.2,29.65,SSW,202,10.9,10.9,48,0.00,BKN,,0.00,0.0,WeatherDisplay:10.37,2013-03-12 03:20:00,
2013-03-11 23:25:00,54.9,35.5,29.65,ESE,112,15.4,15.4,48,0.00,BKN,,0.00,0.0,WeatherDisplay:10.37,2013-03-12 03:25:00,
2013-03-11 23:30:00,54.7,35.4,29.65,SSW,202,8.5,8.5,48,0.00,BKN,,0.00,0.0,WeatherDisplay:10.37,2013-03-12 03:30:00,
2013-03-11 23:35:00,54.9,35.5,29.65,South,180,8.1,8.1,48,0.00,BKN,,0.00,0.0,WeatherDisplay:10.37,2013-03-12 03:35:00,
2013-03-11 23:40:00,55.0,35.7,29.65,South,180,16.1,16.1,48,0.00,BKN,,0.00,0.0,WeatherDisplay:10.37,2013-03-12 03:40:00,
2013-03-11 23:45:00,55.0,35.7,29.65,SSW,202,13.2,13.2,48,0.00,BKN,,0.00,0.0,WeatherDisplay:10.37,2013-03-12 03:45:00,
2013-03-11 23:50:00,55.0,35.7,29.65,SSW,202,9.4,9.4,48,0.00,BKN,,0.00,0.0,WeatherDisplay:10.37,2013-03-12 03:50:00,
2013-03-11 23:55:00,55.0,35.7,29.65,SSE,158,10.4,10.4,48,0.00,BKN,,0.00,0.0,WeatherDisplay:10.37,2013-03-12 03:55:00,